This is the latest recevied weather packets stored in our database for station/object YF9UAG-15. If no packets are shown the sender has not sent any weather packets the latest 1 day(s).
| Time | Temp. | Humidity | Pressure | Rain* | Wind** | Luminosity | Snow |
|---|---|---|---|---|---|---|---|
| 1778072820 | 30° C | 100% | 1007.5 hPa | - | - | - | - |
| 1778072457 | 28.89° C | 100% | 1007.5 hPa | - | - | - | - |
| 1778071127 | 28.89° C | 100% | 1007.5 hPa | - | - | - | - |
| 1778071006 | 28.89° C | 100% | 1007.6 hPa | - | - | - | - |
| 1778070885 | 28.89° C | 100% | 1007.5 hPa | - | - | - | - |
| 1778070764 | 28.89° C | 100% | 1007.6 hPa | - | - | - | - |
| 1778070522 | 29.44° C | 100% | 1007.6 hPa | - | - | - | - |
| 1778069192 | 28.89° C | 100% | 1007.5 hPa | - | - | - | - |
| 1778069071 | 28.89° C | 100% | 1007.5 hPa | - | - | - | - |
| 1778068950 | 28.89° C | 100% | 1007.6 hPa | - | - | - | - |
| 1778068829 | 28.89° C | 100% | 1007.5 hPa | - | - | - | - |
| 1778068708 | 28.33° C | 100% | 1007.5 hPa | - | - | - | - |
| 1778068587 | 28.89° C | 100% | 1007.5 hPa | - | - | - | - |
| 1778068466 | 28.89° C | 100% | 1007.5 hPa | - | - | - | - |
| 1778067015 | 28.89° C | 100% | 1007.3 hPa | - | - | - | - |
| 1778066894 | 28.89° C | 100% | 1007.3 hPa | - | - | - | - |
| 1778066773 | 30° C | 100% | 1007.3 hPa | - | - | - | - |
| 1778066652 | 29.44° C | 100% | 1007.2 hPa | - | - | - | - |
| 1778066531 | 29.44° C | 100% | 1007.3 hPa | - | - | - | - |
| 1778066168 | 29.44° C | 100% | 1007.1 hPa | - | - | - | - |
| 1778065080 | 30° C | 100% | 1006.9 hPa | - | - | - | - |
| 1778064959 | 30° C | 100% | 1006.8 hPa | - | - | - | - |
| 1778064838 | 30° C | 100% | 1006.8 hPa | - | - | - | - |
| 1778064717 | 29.44° C | 100% | 1006.8 hPa | - | - | - | - |
| 1778064475 | 30° C | 100% | 1006.7 hPa | - | - | - | - |
* Rain since midnight (hover to see other rain measurements)
** Current wind speed in m/s (hover to see current wind gust speed)